Home   Weather   Halifax   Past weeks
Flag for Canada

Past Weather in Halifax, Nova Scotia, Canada — Yesterday and Last 2 Weeks

Now
43 °F

Passing clouds.


Feels Like: 41 °F
Forecast: 56 / 43 °F
Wind: 3 mph from Northwest

Location: Halifax International Airport

Current Time: Oct 21, 2019 at 3:01:19 am

Latest Report: Oct 21, 2019 at 2:00 am


Visibility: 15 mi

Pressure: 30.11 "Hg

Humidity: 81%

Dew Point: 37 °F

Location of HalifaxLocation

Past Weather in Halifax — Graph

°F

Halifax Temperature Yesterday

Maximum temperature yesterday: 55 °F (at 2:00 pm)
Minimum temperature yesterday: 39 °F (at 7:00 am)
Average temperature yesterday: 47 °F

High & Low Weather Summary for the Past Weeks

 TemperatureHumidityPressure
High68 °F (Oct 7, 1:00 pm)100% (Oct 8, 5:00 am)30.45 "Hg (Oct 8, 5:00 am)
Low39 °F (Oct 6, 4:00 am)42% (Oct 6, 1:00 pm)29.23 "Hg (Oct 17, 1:45 pm)
Average51 °F87%30.02 "Hg
* Reported Oct 6 2:00 am — Oct 21 2:00 am, Halifax. Weather by CustomWeather, © 2019

Note: Actual official high and low records may vary slightly from our data, if they occured in-between our weather recording intervals... More about our weather records

Advertising

Halifax Weather History for the Previous 24 Hours

Scroll right to see more
 ConditionsComfort  
Time TempWeatherWind HumidityBarometerVisibility
2:00 am
Mon, Oct 21
43 °FPassing clouds.3 mph81%30.11 "Hg15 mi
1:00 am43 °FPassing clouds.3 mph81%30.11 "Hg15 mi
12:00 am45 °FPassing clouds.No wind76%30.10 "Hg15 mi
11:00 pm
Sun, Oct 20
45 °FPassing clouds.6 mph76%30.11 "Hg15 mi
10:00 pm45 °FPassing clouds.3 mph71%30.10 "Hg15 mi
9:00 pm46 °FPassing clouds.6 mph71%30.09 "Hg15 mi
8:00 pm48 °FPassing clouds.8 mph62%30.08 "Hg15 mi
7:15 pm48 °FPassing clouds.8 mph66%30.08 "Hg15 mi
6:00 pm52 °FPartly sunny.8 mph58%30.06 "Hg15 mi
5:00 pm55 °FPassing clouds.9 mph47%30.05 "Hg15 mi
4:00 pm55 °FPassing clouds.14 mph51%30.04 "Hg15 mi
3:00 pm55 °FPassing clouds.9 mph47%30.02 "Hg15 mi
2:00 pm55 °FPassing clouds.15 mph47%30.02 "Hg15 mi
1:00 pm54 °FPassing clouds.13 mph54%30.03 "Hg15 mi
12:00 pm50 °FPassing clouds.12 mph62%30.04 "Hg15 mi
11:00 am48 °FPassing clouds.14 mph71%30.04 "Hg15 mi
10:00 am46 °FPassing clouds.14 mph82%30.03 "Hg15 mi
9:00 am43 °FPassing clouds.9 mph87%30.02 "Hg15 mi
8:00 am39 °FPassing clouds.8 mph100%29.99 "Hg15 mi
7:00 am39 °FPassing clouds.9 mph100%29.98 "Hg15 mi
6:00 am41 °FClear.10 mph93%29.96 "Hg15 mi
5:00 am41 °FClear.8 mph93%29.95 "Hg15 mi
4:00 am43 °FPassing clouds.8 mph81%29.93 "Hg15 mi
3:00 am43 °FPassing clouds.8 mph87%29.93 "Hg15 mi
Weather by CustomWeather, © 2019

See weather overview